Location: Nairn
(57.5833°N, 3.8667°W)
Time: 16:11:19
(UTC+00:00)

Tiros 1 - Pass Details

Date: 01 December 2020
Orbit: 630 x 663 km, 48.4° (Epoch: 21 January)

Event Time Altitude Azimuth Distance (km) Brightness Sun altitude
Rises 17:42:23 0° 253° (WSW) 2,993 12.5 -15.5°
Reaches altitude 10° 17:45:00 10° 241° (WSW) 2,078 11.0 -15.8°
Maximum altitude 17:49:01 27° 184° (S) 1,258 8.8 -16.3°
Enters shadow 17:52:29 13° 131° (SE) 1,894 9.2 -16.8°
Drops below altitude 10° 17:53:01 10° 127° (SE) 2,064 - -16.9°
Sets 17:55:37 0° 116° (ESE) 2,969 - -17.2°
